Location: M.A.R.S.Observatory
(35.4031°N, 81.5481°W)
Time: 04:49:14
(UTC-04:00)

SL-8 R/B - Visible Passes

Search period start: 27 August 2014 00:00
Search period end: 06 September 2014 00:00
Orbit: 659 x 670 km, 48.4° (Epoch: 25 August)

Date Brightness Start Highest point End Pass type
(mag) Time Alt. Az. Time Alt. Az. Time Alt. Az.
27 Aug 5.6 21:40:00 10° W 21:44:07 28° NNW 21:48:15 10° NE visible
27 Aug 6.3 23:24:52 10° NW 23:27:25 16° N 23:27:25 16° N visible
28 Aug 4.7 20:28:24 10° WSW 20:33:02 49° NNW 20:37:41 10° NE visible
28 Aug 6.1 22:13:05 10° WNW 22:16:30 19° NNW 22:19:41 11° NNE visible
28 Aug 6.7 23:57:11 10° NW 23:57:42 12° NNW 23:57:42 12° NNW visible
29 Aug 5.7 21:01:08 10° W 21:05:11 27° NNW 21:09:15 10° NE visible
29 Aug 6.1 22:45:59 10° NW 22:49:03 17° N 22:49:54 16° NNE visible
30 Aug 6.1 21:34:14 10° NW 21:37:36 19° N 21:40:58 10° NE visible
30 Aug 6.3 23:18:13 10° NW 23:20:05 16° NNW 23:20:05 16° NNW visible
31 Aug 5.7 20:22:17 10° WNW 20:26:16 25° NNW 20:30:15 10° NE visible
31 Aug 6.0 22:07:05 10° NW 22:10:09 17° N 22:12:13 13° NNE visible
31 Aug 6.8 23:49:55 10° NW 23:50:14 11° NW 23:50:14 11° NW visible
01 Sep 6.0 20:55:23 10° NW 20:58:42 18° N 21:02:00 10° NE visible
01 Sep 5.9 22:39:14 10° NW 22:42:21 19° N 22:42:21 19° N visible
02 Sep 6.0 21:28:10 10° NW 21:31:15 17° N 21:34:20 10° NE visible
02 Sep 6.2 23:10:55 10° NW 23:12:29 18° NNW 23:12:29 18° NNW visible
03 Sep 6.0 20:16:31 10° NW 20:19:47 18° N 20:23:03 10° NE visible
03 Sep 5.6 22:00:15 10° NW 22:03:47 20° NNE 22:04:36 19° NNE visible
03 Sep 6.8 23:42:29 10° NW 23:42:37 11° NW 23:42:37 11° NW visible
04 Sep 5.9 20:49:14 10° NW 20:52:21 17° N 20:55:27 10° NE visible
04 Sep 5.5 22:31:54 10° NW 22:34:45 26° N 22:34:45 26° N visible
05 Sep 5.6 21:21:16 10° NW 21:24:52 21° NNE 21:26:55 16° NE visible
05 Sep 6.2 23:03:29 10° NW 23:04:55 19° NW 23:04:55 19° NW visible
